Le nostre stazioni meteo in Italia

Pubblicità
Il mio iltempo24.it
Treviso/Istrana, Italia (16098): Temperatura & dewpoint: 15.09.2018 05:00:00 - 21.09.2018 05:00:00 (CEST)Treviso/Istrana, Italia (16098): velocità del vento: 15.09.2018 05:00:00 - 21.09.2018 05:00:00 (CEST)Treviso/Istrana, Italia (16098): direzione del vento: 15.09.2018 05:00:00 - 21.09.2018 05:00:00 (CEST)Treviso/Istrana, Italia (16098): reduced air pressure: 15.09.2018 05:00:00 - 21.09.2018 05:00:00 (CEST)Treviso/Istrana, Italia (16098): visibility: 15.09.2018 05:00:00 - 21.09.2018 05:00:00 (CEST)
Data & Tempo tt [°C] td [°C] ff [km/h] ff [kn] dd ppp [hPa] vv [km]
21.09.2018 05:00:00 - - - - - - -
21.09.2018 04:00:00 20,4 16,8 0 0 N 1016,3 15
21.09.2018 03:00:00 20,4 16,8 0 0 N 1016,6 15
21.09.2018 02:00:00 21,0 17,4 0 0 N 1017,1 15
21.09.2018 01:00:00 21,4 17,6 11 6 NNE 1017,3 15
21.09.2018 00:00:00 22,8 17,3 9 5 N 1017,3 15
20.09.2018 23:00:00 22,8 17,9 8 4 N 1017,3 12
20.09.2018 22:00:00 22,8 18,8 0 0 N 1017,3 15
20.09.2018 21:00:00 23,6 18,7 0 0 N 1017,3 15
20.09.2018 20:00:00 25,0 16,7 4 2 O 1017,4 15
20.09.2018 19:00:00 28,4 17,6 4 2 S 1016,8 15
20.09.2018 18:00:00 29,2 17,1 9 5 S 1017,0 15
20.09.2018 17:00:00 30,2 15,1 5 3 SSE 1017,3 15
20.09.2018 16:00:00 30,6 14,7 9 5 SE 1018,0 15
20.09.2018 15:00:00 30,4 14,5 16 9 E 1018,2 15
20.09.2018 14:00:00 30,0 15,7 8 4 E 1018,5 15
20.09.2018 13:00:00 29,0 14,8 9 5 ENE 1019,1 18
20.09.2018 12:00:00 28,0 15,3 15 8 E 1019,5 18
20.09.2018 11:00:00 28,4 18,8 9 5 ENE 1019,5 15
20.09.2018 10:00:00 25,6 18,5 9 5 NNE 1019,5 15
20.09.2018 09:00:00 23,4 18,5 8 4 N 1019,7 15
20.09.2018 08:00:00 19,2 17,0 0 0 N 1019,4 15
20.09.2018 07:00:00 20,2 17,0 0 0 N 1019,1 15
20.09.2018 06:00:00 19,0 17,0 0 0 N 1019,5 10
20.09.2018 05:00:00 20,0 18,0 0 0 N 1019,5 10
20.09.2018 04:00:00 20,2 18,2 8 4 N 1019,6 10
20.09.2018 03:00:00 21,0 18,9 0 0 N 1020,0 10
20.09.2018 02:00:00 21,2 19,1 5 3 NNE 1020,7 10
20.09.2018 01:00:00 21,2 19,1 5 3 NE 1020,0 10
20.09.2018 00:00:00 22,4 20,0 8 4 ENE 1020,0 10
19.09.2018 23:00:00 23,2 20,2 0 0 N 1020,0 8
19.09.2018 22:00:00 23,4 20,5 0 0 N 1019,9 8
19.09.2018 21:00:00 24,0 20,5 0 0 N 1018,8 8
19.09.2018 20:00:00 25,6 20,0 0 0 N 1018,7 10
19.09.2018 19:00:00 27,6 19,7 0 0 N 1018,4 12
19.09.2018 18:00:00 28,6 18,1 0 0 N 1018,1 12
19.09.2018 17:00:00 28,6 18,1 8 4 O 1018,2 12
19.09.2018 16:00:00 28,8 19,2 9 5 SO 1018,7 12
19.09.2018 15:00:00 29,2 18,9 8 4 S 1018,8 12
19.09.2018 14:00:00 29,2 19,2 5 3 S 1019,1 12
19.09.2018 13:00:00 27,6 19,7 5 3 SO 1019,3 10
19.09.2018 12:00:00 26,4 19,8 5 3 ESE 1019,7 9
19.09.2018 11:00:00 24,8 21,3 8 4 E 1019,8 6
19.09.2018 10:00:00 23,4 20,3 9 5 ENE 1020,0 5
19.09.2018 09:00:00 21,4 18,4 5 3 NE 1019,9 4,0
19.09.2018 08:00:00 19,0 16,4 9 5 NNE 1019,3 3,0
19.09.2018 07:00:00 18,8 16,4 4 2 ENE 1018,7 0,6
19.09.2018 06:00:00 19,4 16,6 8 4 N 1018,8 2,5
19.09.2018 05:00:00 19,4 16,8 0 0 N 1019,7 2,5
19.09.2018 04:00:00 19,4 16,8 8 4 NE 1019,7 3,0
19.09.2018 03:00:00 20,0 17,4 5 3 NNE 1019,6 5
19.09.2018 02:00:00 20,0 17,4 5 3 NNO 1019,6 5
19.09.2018 01:00:00 22,0 19,4 4 2 NNO 1019,6 5
19.09.2018 00:00:00 22,0 19,7 4 2 NO 1019,6 5
18.09.2018 23:00:00 23,0 20,3 0 0 N 1018,7 6
18.09.2018 22:00:00 23,0 20,3 0 0 N 1018,7 6
18.09.2018 21:00:00 24,0 21,3 4 2 NO 1018,6 6
18.09.2018 20:00:00 25,0 21,9 9 5 SO 1018,5 6
18.09.2018 19:00:00 26,0 22,1 11 6 SSO 1018,4 7
18.09.2018 18:00:00 27,2 20,5 11 6 S 1018,2 10
18.09.2018 17:00:00 27,8 17,7 4 2 SSO 1018,6 10
18.09.2018 16:00:00 28,0 17,2 8 4 NO 1018,8 10
18.09.2018 15:00:00 28,4 17,9 5 3 NO 1019,1 12
18.09.2018 14:00:00 27,2 18,8 5 3 ONO 1019,7 10
18.09.2018 13:00:00 27,0 19,4 8 4 OSO 1019,7 10
18.09.2018 12:00:00 26,4 18,5 0 0 N 1019,9 13
18.09.2018 11:00:00 26,2 18,6 4 2 ESE 1020,0 10
18.09.2018 10:00:00 23,6 18,3 4 2 ENE 1020,0 10
18.09.2018 09:00:00 21,8 18,6 8 4 NE 1020,0 10
18.09.2018 08:00:00 19,6 17,4 4 2 NNO 1019,7 7
18.09.2018 07:00:00 19,4 17,0 2 1 NO 1019,6 8
18.09.2018 06:00:00 20,0 17,4 4 2 NNE 1019,5 9
18.09.2018 05:00:00 19,8 17,2 5 3 NNE 1019,4 8
18.09.2018 04:00:00 19,0 16,6 8 4 NNE 1019,2 8
18.09.2018 03:00:00 19,4 17,4 4 2 E 1019,5 8
18.09.2018 02:00:00 20,4 18,5 2 1 NNE 1019,5 8
18.09.2018 01:00:00 21,0 19,1 2 1 N 1019,3 9
18.09.2018 00:00:00 22,0 20,1 2 1 ENE 1019,7 10
17.09.2018 23:00:00 22,8 20,3 2 1 O 1019,9 11
17.09.2018 22:00:00 24,0 20,7 2 1 NO 1020,0 12
17.09.2018 21:00:00 24,6 20,1 2 1 NNO 1019,8 12
17.09.2018 20:00:00 25,0 18,0 5 3 ESE 1019,2 10
17.09.2018 19:00:00 26,0 17,6 8 4 SSE 1018,9 10
17.09.2018 18:00:00 27,0 18,6 13 7 SSE 1018,8 9
17.09.2018 17:00:00 28,6 18,7 0 0 N 1019,0 10
17.09.2018 16:00:00 29,0 18,5 4 2 SSE 1019,4 10
17.09.2018 15:00:00 30,0 18,1 2 1 O 1020,1 10
17.09.2018 14:00:00 29,4 20,0 5 3 SO 1020,7 10
17.09.2018 13:00:00 29,0 19,0 8 4 SSO 1020,9 10
17.09.2018 12:00:00 28,2 17,7 4 2 E 1021,1 10
17.09.2018 11:00:00 25,2 19,1 4 2 E 1021,1 10
17.09.2018 10:00:00 24,0 19,3 8 4 ESE 1021,1 10
17.09.2018 09:00:00 22,0 19,4 2 1 ESE 1021,0 10
17.09.2018 08:00:00 19,6 18,1 4 2 N 1021,1 10
17.09.2018 07:00:00 20,0 18,3 0 0 N 1020,7 10
17.09.2018 06:00:00 20,2 18,2 0 0 N 1020,9 10
17.09.2018 05:00:00 20,2 18,2 8 4 NE 1021,0 10
17.09.2018 04:00:00 20,4 18,4 8 4 E 1021,5 10
17.09.2018 03:00:00 20,4 18,5 5 3 NE 1021,5 10
17.09.2018 02:00:00 20,4 18,5 9 5 NNE 1021,5 10
17.09.2018 01:00:00 20,4 18,4 9 5 NNE 1021,5 10
17.09.2018 00:00:00 21,4 19,3 0 0 N 1019,7 10
16.09.2018 23:00:00 22,0 19,9 0 0 N 1020,8 10
16.09.2018 22:00:00 22,4 20,3 4 2 N 1020,8 10
16.09.2018 21:00:00 23,6 20,3 0 0 N 1021,2 15
16.09.2018 20:00:00 24,8 20,9 4 2 S 1020,8 15
16.09.2018 19:00:00 26,8 20,2 5 3 S 1020,6 18
16.09.2018 18:00:00 28,2 17,7 4 2 SSE 1020,5 18
16.09.2018 17:00:00 29,2 16,4 4 2 ESE 1020,5 18
16.09.2018 16:00:00 29,6 17,4 11 6 SE 1021,0 18
16.09.2018 15:00:00 29,6 17,1 9 5 E 1021,4 18
16.09.2018 14:00:00 28,6 16,5 11 6 ESE 1021,8 18
16.09.2018 13:00:00 27,4 17,3 8 4 E 1022,2 18
16.09.2018 12:00:00 26,4 16,9 4 2 SE 1022,6 18
16.09.2018 11:00:00 25,2 17,9 9 5 E 1022,8 18
16.09.2018 10:00:00 23,8 18,7 9 5 E 1022,6 18
16.09.2018 09:00:00 22,0 18,2 5 3 NE 1022,3 15
16.09.2018 08:00:00 20,2 17,8 0 0 N 1022,2 10
16.09.2018 07:00:00 19,4 17,4 8 4 NNE 1021,7 10
16.09.2018 06:00:00 20,0 17,8 5 3 NNE 1021,7 10
16.09.2018 05:00:00 20,6 18,2 0 0 N 1021,8 10
16.09.2018 04:00:00 20,8 18,2 0 0 N 1021,6 10
16.09.2018 03:00:00 20,8 18,7 0 0 N 1021,9 10
16.09.2018 02:00:00 20,2 18,3 0 0 N 1021,9 10
16.09.2018 01:00:00 21,0 19,1 0 0 N 1021,9 10
16.09.2018 00:00:00 21,0 19,3 0 0 N 1021,7 10
15.09.2018 23:00:00 22,2 20,1 0 0 N 1021,4 10
15.09.2018 22:00:00 22,2 20,3 0 0 N 1021,0 10
15.09.2018 21:00:00 22,8 20,7 5 3 ENE 1020,5 10
15.09.2018 20:00:00 24,0 21,7 0 0 N 1020,0 10
15.09.2018 19:00:00 26,0 21,2 9 5 SSE 1019,4 10
15.09.2018 18:00:00 27,4 20,2 9 5 ESE 1019,2 12
15.09.2018 17:00:00 27,4 18,4 9 5 SE 1019,5 15
15.09.2018 16:00:00 27,0 17,5 9 5 ESE 1019,4 15
15.09.2018 15:00:00 26,4 17,5 11 6 NE 1019,8 15
15.09.2018 14:00:00 27,0 18,0 8 4 ENE 1019,8 15
15.09.2018 13:00:00 26,6 19,0 9 5 NE 1019,8 15
15.09.2018 12:00:00 26,0 18,2 8 4 SE 1019,8 15
15.09.2018 11:00:00 25,4 19,3 0 0 N 1019,6 15
15.09.2018 10:00:00 22,0 19,5 0 0 N 1019,3 15
15.09.2018 09:00:00 21,0 18,4 8 4 O 1019,1 15
15.09.2018 08:00:00 20,2 18,0 5 3 N 1018,0 6
15.09.2018 07:00:00 20,0 18,0 9 5 ONO 1018,2 5
15.09.2018 06:00:00 20,2 18,5 0 0 N 1018,0 7
15.09.2018 05:00:00 20,6 18,9 0 0 N 1018,1 7

tt = Temperatura
td = dewpoint
ff = velocità del vento
dd = direzione del vento
ppp = reduced air pressure
vv = visibility

Stazioni seguenti

WeatherPro
AMSI
MeteoEarth